Time,TemperatureF,DewpointF,PressureIn,WindDirection,WindDirectionDegrees,WindSpeedMPH,WindSpeedGustMPH,Humidity,HourlyPrecipIn,Conditions,Clouds,dailyrainin,SoftwareType,DateUTC
2013-04-30 00:08:00,67.7,67.0,29.88,SSW,212,0.0,1.0,96,0.00,,,0.00,weatherlink.com 1.10,2013-04-30 05:08:00,
2013-04-30 00:23:00,67.7,67.0,29.87,SW,222,0.0,1.0,96,0.00,,,0.00,weatherlink.com 1.10,2013-04-30 05:23:00,
2013-04-30 00:38:00,67.7,67.0,29.87,SW,222,0.0,0.0,96,0.00,,,0.00,weatherlink.com 1.10,2013-04-30 05:38:00,
2013-04-30 00:53:00,67.7,67.0,29.87,SW,222,0.0,0.0,96,0.00,,,0.00,weatherlink.com 1.10,2013-04-30 05:53:00,
2013-04-30 01:08:00,67.7,67.0,29.87,SW,222,0.0,1.0,96,0.00,,,0.00,weatherlink.com 1.10,2013-04-30 06:08:00,
2013-04-30 01:23:00,67.7,67.0,29.87,SW,222,0.0,0.0,96,0.00,,,0.00,weatherlink.com 1.10,2013-04-30 06:23:00,
2013-04-30 01:37:00,67.7,67.0,29.86,SW,222,0.0,1.0,96,0.00,,,0.00,weatherlink.com 1.10,2013-04-30 06:37:00,
2013-04-30 01:52:00,67.5,66.0,29.86,SW,222,0.0,0.0,96,0.00,,,0.00,weatherlink.com 1.10,2013-04-30 06:52:00,
2013-04-30 02:07:00,67.2,66.0,29.86,SW,222,0.0,0.0,96,0.00,,,0.00,weatherlink.com 1.10,2013-04-30 07:07:00,
2013-04-30 02:22:00,67.5,66.0,29.85,ESE,116,0.0,0.0,96,0.00,,,0.00,weatherlink.com 1.10,2013-04-30 07:22:00,
2013-04-30 02:37:00,67.5,66.0,29.85,ESE,116,0.0,0.0,96,0.00,,,0.00,weatherlink.com 1.10,2013-04-30 07:37:00,
2013-04-30 02:52:00,67.6,66.0,29.84,ESE,116,0.0,0.0,96,0.00,,,0.00,weatherlink.com 1.10,2013-04-30 07:52:00,
2013-04-30 03:07:00,67.5,66.0,29.84,ESE,116,0.0,0.0,96,0.00,,,0.00,weatherlink.com 1.10,2013-04-30 08:07:00,
2013-04-30 03:22:00,67.6,67.0,29.83,ESE,116,0.0,0.0,97,0.00,,,0.00,weatherlink.com 1.10,2013-04-30 08:22:00,
2013-04-30 03:37:00,67.8,67.0,29.83,ESE,116,0.0,1.0,97,0.00,,,0.00,weatherlink.com 1.10,2013-04-30 08:37:00,
2013-04-30 03:52:00,68.2,67.0,29.83,ESE,115,0.0,1.0,97,0.00,,,0.00,weatherlink.com 1.10,2013-04-30 08:52:00,
2013-04-30 04:07:00,68.5,68.0,29.82,SE,132,0.0,1.0,97,0.00,,,0.00,weatherlink.com 1.10,2013-04-30 09:07:00,
2013-04-30 04:22:00,68.8,68.0,29.83,ESE,120,0.0,2.0,96,0.00,,,0.00,weatherlink.com 1.10,2013-04-30 09:22:00,
2013-04-30 04:36:00,69.0,68.0,29.83,East,82,2.0,3.0,96,0.00,,,0.00,weatherlink.com 1.10,2013-04-30 09:36:00,
2013-04-30 04:51:00,69.0,68.0,29.83,SSE,159,0.0,1.0,96,0.00,,,0.00,weatherlink.com 1.10,2013-04-30 09:51:00,
2013-04-30 05:06:00,68.8,68.0,29.83,East,79,0.0,2.0,96,0.00,,,0.00,weatherlink.com 1.10,2013-04-30 10:06:00,
2013-04-30 05:21:00,68.8,68.0,29.83,ESE,113,0.0,3.0,96,0.00,,,0.00,weatherlink.com 1.10,2013-04-30 10:21:00,
2013-04-30 05:36:00,68.8,68.0,29.82,NE,49,2.0,5.0,96,0.00,,,0.00,weatherlink.com 1.10,2013-04-30 10:36:00,
2013-04-30 05:51:00,68.9,68.0,29.83,East,85,2.0,2.0,96,0.00,,,0.00,weatherlink.com 1.10,2013-04-30 10:51:00,
2013-04-30 06:06:00,69.2,68.0,29.84,ESE,118,0.0,3.0,96,0.00,,,0.00,weatherlink.com 1.10,2013-04-30 11:06:00,
2013-04-30 06:21:00,69.3,68.0,29.84,ESE,103,1.0,3.0,96,0.00,,,0.00,weatherlink.com 1.10,2013-04-30 11:21:00,
2013-04-30 06:35:00,69.2,68.0,29.84,SSE,161,1.0,3.0,96,0.00,,,0.00,weatherlink.com 1.10,2013-04-30 11:35:00,
2013-04-30 06:50:00,69.1,68.0,29.84,SE,145,2.0,5.0,96,0.00,,,0.00,weatherlink.com 1.10,2013-04-30 11:50:00,
2013-04-30 07:05:00,69.2,68.0,29.84,SE,129,1.0,5.0,96,0.00,,,0.00,weatherlink.com 1.10,2013-04-30 12:05:00,
2013-04-30 07:20:00,69.3,68.0,29.84,SE,136,1.0,3.0,96,0.00,,,0.00,weatherlink.com 1.10,2013-04-30 12:20:00,
2013-04-30 07:35:00,69.5,68.0,29.83,East,89,1.0,4.0,96,0.00,,,0.00,weatherlink.com 1.10,2013-04-30 12:35:00,
2013-04-30 07:50:00,69.7,69.0,29.83,SE,134,1.0,5.0,96,0.00,,,0.00,weatherlink.com 1.10,2013-04-30 12:50:00,
2013-04-30 08:05:00,69.9,69.0,29.84,ESE,104,1.0,4.0,96,0.00,,,0.00,weatherlink.com 1.10,2013-04-30 13:05:00,
2013-04-30 08:20:00,70.2,69.0,29.84,ENE,77,3.0,4.0,95,0.00,,,0.00,weatherlink.com 1.10,2013-04-30 13:20:00,
2013-04-30 08:35:00,70.4,69.0,29.84,ESE,118,3.0,5.0,95,0.00,,,0.00,weatherlink.com 1.10,2013-04-30 13:35:00,
2013-04-30 08:50:00,70.7,69.0,29.83,East,96,4.0,8.0,94,0.00,,,0.00,weatherlink.com 1.10,2013-04-30 13:50:00,
2013-04-30 09:05:00,71.0,69.0,29.84,East,84,4.0,4.0,94,0.00,,,0.00,weatherlink.com 1.10,2013-04-30 14:05:00,
2013-04-30 09:20:00,71.1,69.0,29.84,East,79,4.0,7.0,93,0.00,,,0.00,weatherlink.com 1.10,2013-04-30 14:20:00,
2013-04-30 09:35:00,71.2,69.0,29.84,East,99,5.0,9.0,93,0.00,,,0.00,weatherlink.com 1.10,2013-04-30 14:35:00,
2013-04-30 09:50:00,71.4,69.0,29.84,East,89,2.0,7.0,93,0.00,,,0.00,weatherlink.com 1.10,2013-04-30 14:50:00,
2013-04-30 10:05:00,71.8,69.0,29.84,East,80,4.0,10.0,91,0.00,,,0.00,weatherlink.com 1.10,2013-04-30 15:05:00,
2013-04-30 10:20:00,72.1,68.0,29.84,SE,134,5.0,10.0,88,0.00,,,0.00,weatherlink.com 1.10,2013-04-30 15:20:00,
2013-04-30 10:35:00,72.7,68.0,29.85,ESE,120,6.0,11.0,86,0.00,,,0.00,weatherlink.com 1.10,2013-04-30 15:35:00,
2013-04-30 10:50:00,73.3,68.0,29.86,ESE,102,7.0,8.0,84,0.00,,,0.00,weatherlink.com 1.10,2013-04-30 15:50:00,
2013-04-30 11:05:00,73.8,67.0,29.86,SE,133,1.0,6.0,80,0.00,,,0.00,weatherlink.com 1.10,2013-04-30 16:05:00,
2013-04-30 11:20:00,75.7,67.0,29.86,SSE,153,3.0,8.0,75,0.00,,,0.00,weatherlink.com 1.10,2013-04-30 16:20:00,
2013-04-30 11:35:00,75.5,68.0,29.85,East,85,4.0,10.0,77,0.00,,,0.00,weatherlink.com 1.10,2013-04-30 16:35:00,
2013-04-30 11:50:00,76.0,68.0,29.84,East,92,3.0,8.0,77,0.00,,,0.00,weatherlink.com 1.10,2013-04-30 16:50:00,
2013-04-30 12:05:00,76.7,68.0,29.84,ENE,75,2.0,9.0,75,0.00,,,0.00,weatherlink.com 1.10,2013-04-30 17:05:00,
2013-04-30 12:20:00,76.4,68.0,29.84,NE,39,8.0,11.0,76,0.00,,,0.00,weatherlink.com 1.10,2013-04-30 17:20:00,
2013-04-30 12:35:00,77.5,68.0,29.83,ENE,63,8.0,12.0,73,0.00,,,0.00,weatherlink.com 1.10,2013-04-30 17:35:00,
2013-04-30 12:50:00,78.5,68.0,29.83,SE,132,4.0,10.0,70,0.00,,,0.00,weatherlink.com 1.10,2013-04-30 17:50:00,
2013-04-30 13:05:00,79.0,67.0,29.83,East,79,8.0,11.0,66,0.00,,,0.00,weatherlink.com 1.10,2013-04-30 18:05:00,
2013-04-30 13:20:00,79.1,68.0,29.82,ENE,60,8.0,11.0,68,0.00,,,0.00,weatherlink.com 1.10,2013-04-30 18:20:00,
2013-04-30 13:35:00,79.0,68.0,29.82,East,84,11.0,13.0,69,0.00,,,0.00,weatherlink.com 1.10,2013-04-30 18:35:00,
2013-04-30 13:50:00,78.8,68.0,29.82,ENE,64,6.0,12.0,70,0.00,,,0.00,weatherlink.com 1.10,2013-04-30 18:50:00,
2013-04-30 14:05:00,78.6,68.0,29.82,ESE,121,3.0,10.0,70,0.00,,,0.00,weatherlink.com 1.10,2013-04-30 19:05:00,
2013-04-30 14:20:00,79.6,69.0,29.81,East,89,3.0,8.0,69,0.00,,,0.00,weatherlink.com 1.10,2013-04-30 19:20:00,
2013-04-30 14:35:00,79.9,68.0,29.80,ENE,74,3.0,7.0,66,0.00,,,0.00,weatherlink.com 1.10,2013-04-30 19:35:00,
2013-04-30 14:50:00,80.1,67.0,29.80,ESE,118,7.0,11.0,65,0.00,,,0.00,weatherlink.com 1.10,2013-04-30 19:50:00,
2013-04-30 15:05:00,76.4,67.0,29.81,SSW,204,13.0,19.0,74,0.02,,,0.04,weatherlink.com 1.10,2013-04-30 20:05:00,
2013-04-30 15:20:00,70.7,67.0,29.80,SSE,156,0.0,10.0,88,0.30,,,0.30,weatherlink.com 1.10,2013-04-30 20:20:00,
2013-04-30 15:35:00,73.3,70.0,29.79,ENE,70,1.0,4.0,89,0.30,,,0.30,weatherlink.com 1.10,2013-04-30 20:35:00,
2013-04-30 15:50:00,76.1,71.0,29.79,ENE,74,4.0,4.0,84,0.30,,,0.30,weatherlink.com 1.10,2013-04-30 20:50:00,
2013-04-30 16:05:00,77.6,70.0,29.78,ESE,122,6.0,8.0,78,0.26,,,0.30,weatherlink.com 1.10,2013-04-30 21:05:00,
2013-04-30 16:20:00,79.2,68.0,29.78,SE,134,2.0,7.0,69,0.00,,,0.30,weatherlink.com 1.10,2013-04-30 21:20:00,
2013-04-30 16:35:00,78.6,68.0,29.78,SSE,160,3.0,7.0,71,0.00,,,0.30,weatherlink.com 1.10,2013-04-30 21:35:00,
2013-04-30 16:50:00,74.3,68.0,29.80,East,92,10.0,14.0,81,0.00,,,0.30,weatherlink.com 1.10,2013-04-30 21:50:00,
2013-04-30 17:05:00,70.5,67.0,29.80,East,96,6.0,12.0,88,0.00,,,0.30,weatherlink.com 1.10,2013-04-30 22:05:00,
2013-04-30 17:19:00,72.0,68.0,29.79,SE,134,2.0,10.0,87,0.00,,,0.30,weatherlink.com 1.10,2013-04-30 22:19:00,
2013-04-30 17:34:00,73.0,69.0,29.79,East,83,6.0,10.0,86,0.00,,,0.30,weatherlink.com 1.10,2013-04-30 22:34:00,
2013-04-30 17:49:00,74.0,69.0,29.80,SSE,148,5.0,8.0,85,0.00,,,0.30,weatherlink.com 1.10,2013-04-30 22:49:00,
2013-04-30 18:04:00,73.2,68.0,29.79,ESE,115,4.0,11.0,85,0.00,,,0.30,weatherlink.com 1.10,2013-04-30 23:04:00,
2013-04-30 18:19:00,73.0,69.0,29.80,East,86,4.0,8.0,86,0.00,,,0.30,weatherlink.com 1.10,2013-04-30 23:19:00,
2013-04-30 18:34:00,72.8,68.0,29.80,ENE,60,4.0,7.0,85,0.00,,,0.30,weatherlink.com 1.10,2013-04-30 23:34:00,
2013-04-30 18:49:00,72.9,68.0,29.80,NE,43,2.0,5.0,86,0.00,,,0.30,weatherlink.com 1.10,2013-04-30 23:49:00,
2013-04-30 19:04:00,72.0,68.0,29.79,NNE,13,0.0,5.0,88,0.00,,,0.30,weatherlink.com 1.10,2013-05-01 00:04:00,
2013-04-30 19:19:00,71.9,68.0,29.79,NNE,25,2.0,3.0,88,0.00,,,0.30,weatherlink.com 1.10,2013-05-01 00:19:00,
2013-04-30 19:34:00,71.5,68.0,29.79,ENE,75,3.0,6.0,90,0.00,,,0.30,weatherlink.com 1.10,2013-05-01 00:34:00,
2013-04-30 19:49:00,71.6,68.0,29.80,SSE,165,1.0,5.0,89,0.00,,,0.30,weatherlink.com 1.10,2013-05-01 00:49:00,
2013-04-30 20:03:00,71.8,68.0,29.79,NE,53,0.0,3.0,87,0.00,,,0.30,weatherlink.com 1.10,2013-05-01 01:03:00,
2013-04-30 20:18:00,71.7,68.0,29.80,NNE,25,1.0,2.0,88,0.00,,,0.30,weatherlink.com 1.10,2013-05-01 01:18:00,
2013-04-30 20:33:00,70.7,67.0,29.80,NE,53,4.0,6.0,88,0.00,,,0.30,weatherlink.com 1.10,2013-05-01 01:33:00,
2013-04-30 20:48:00,70.8,67.0,29.81,East,82,4.0,6.0,87,0.00,,,0.30,weatherlink.com 1.10,2013-05-01 01:48:00,
2013-04-30 21:03:00,70.8,67.0,29.82,SSE,148,0.0,4.0,88,0.00,,,0.30,weatherlink.com 1.10,2013-05-01 02:03:00,
2013-04-30 21:18:00,71.0,68.0,29.82,SE,133,0.0,4.0,89,0.00,,,0.30,weatherlink.com 1.10,2013-05-01 02:18:00,
2013-04-30 21:33:00,70.9,68.0,29.83,SSE,160,0.0,1.0,90,0.00,,,0.30,weatherlink.com 1.10,2013-05-01 02:33:00,
2013-04-30 21:48:00,70.9,68.0,29.84,ESE,115,6.0,6.0,91,0.00,,,0.30,weatherlink.com 1.10,2013-05-01 02:48:00,
2013-04-30 22:03:00,71.1,68.0,29.85,ESE,120,6.0,6.0,90,0.00,,,0.30,weatherlink.com 1.10,2013-05-01 03:03:00,
2013-04-30 22:18:00,71.1,68.0,29.85,ENE,78,2.0,5.0,91,0.00,,,0.30,weatherlink.com 1.10,2013-05-01 03:18:00,
2013-04-30 22:33:00,71.0,69.0,29.85,ENE,67,2.0,4.0,92,0.00,,,0.30,weatherlink.com 1.10,2013-05-01 03:33:00,
2013-04-30 22:48:00,70.7,68.0,29.85,East,96,3.0,6.0,92,0.01,,,0.31,weatherlink.com 1.10,2013-05-01 03:48:00,
2013-04-30 23:03:00,70.4,68.0,29.85,SSE,164,6.0,6.0,91,0.01,,,0.31,weatherlink.com 1.10,2013-05-01 04:03:00,
2013-04-30 23:17:00,70.4,68.0,29.84,ENE,74,4.0,7.0,91,0.01,,,0.31,weatherlink.com 1.10,2013-05-01 04:17:00,
2013-04-30 23:32:00,70.1,67.0,29.84,East,89,7.0,7.0,91,0.01,,,0.31,weatherlink.com 1.10,2013-05-01 04:32:00,
2013-04-30 23:47:00,69.9,67.0,29.84,East,84,2.0,6.0,92,0.00,,,0.31,weatherlink.com 1.10,2013-05-01 04:47:00,